START_TIME,STEP,MOV.,M34,t_acc.,L5,t_acc.,L18,t_acc.,L14,t_acc.
1981-08-25 09:00:25.680 ,1,0,0.,12.0,0.,12.0,0.,12.0,0.,12.0
1981-08-25 09:00:37.680 ,1,0,0.,12.0,0.,12.0,0.,12.0,0.,12.0
1981-08-25 09:00:49.680 ,2,1,0.,12.0,0.,12.0,0.,12.0,0.,12.0
1981-08-25 09:01:01.680 ,2,1,0.,12.0,0.,12.0,0.,12.0,0.,12.0
1981-08-25 09:01:13.680 ,2,0,0.,12.0,0.,12.0,0.,12.0,0.,12.0
1981-08-25 09:01:25.680 ,2,0,0.,12.0,0.,12.0,0.,12.0,0.,12.0
1981-08-25 09:01:37.680 ,3,1,0.,12.0,0.,12.0,0.,12.0,0.,12.0
1981-08-25 09:01:49.680 ,3,1,0.,12.0,0.,12.0,0.,12.0,0.,12.0
1981-08-25 09:02:01.680 ,3,0,0.,12.0,0.,12.0,0.,12.0,0.,12.0
1981-08-25 09:02:13.680 ,3,0,0.,12.0,0.,12.0,0.,12.0,0.,12.0
1981-08-25 09:02:25.680 ,4,1,0.,12.0,0.,12.0,0.,12.0,0.,12.0
1981-08-25 09:02:37.680 ,4,1,0.,12.0,0.,12.0,0.,12.0,0.,12.0
1981-08-25 09:02:49.680 ,4,0,0.,12.0,0.,12.0,0.,12.0,0.,12.0
1981-08-25 09:03:01.680 ,4,0,0.,12.0,0.,12.0,0.,12.0,0.,12.0
1981-08-25 09:03:13.680 ,5,1,0.,12.0,0.,12.0,0.,12.0,0.,12.0
1981-08-25 09:03:25.680 ,5,1,0.,12.0,0.,12.0,0.,12.0,0.,12.0
1981-08-25 09:03:37.680 ,5,0,0.,12.0,0.,12.0,0.,12.0,0.,12.0
1981-08-25 09:03:49.680 ,5,0,0.,12.0,0.,12.0,0.,12.0,0.,12.0
1981-08-25 09:04:01.680 ,6,1,0.,12.0,0.,12.0,0.,12.0,0.,12.0
1981-08-25 09:04:13.680 ,6,1,0.,12.0,0.,12.0,0.,12.0,0.,12.0
1981-08-25 09:04:25.680 ,6,0,0.,12.0,0.,12.0,0.,12.0,0.,12.0
1981-08-25 09:04:37.680 ,6,0,0.,12.0,0.,12.0,0.,12.0,0.,12.0
1981-08-25 09:04:49.680 ,7,1,0.,12.0,0.,12.0,0.,12.0,0.,12.0
1981-08-25 09:05:01.680 ,7,1,0.,12.0,0.,12.0,0.,12.0,0.,12.0
1981-08-25 09:05:13.680 ,7,0,0.,12.0,0.,12.0,0.,12.0,0.,12.0
1981-08-25 09:05:25.680 ,7,0,0.,12.0,0.,12.0,0.,12.0,0.,12.0
1981-08-25 09:05:37.680 ,7,1,0.,12.0,0.,12.0,0.,12.0,0.,12.0
1981-08-25 09:05:49.680 ,7,1,0.,12.0,0.,12.0,0.,12.0,0.,12.0
1981-08-25 09:06:01.680 ,7,0,0.,12.0,0.,12.0,0.,12.0,0.,12.0
1981-08-25 09:06:13.680 ,7,0,0.,12.0,0.,12.0,0.,12.0,0.,12.0
1981-08-25 09:06:25.680 ,6,1,0.,12.0,0.,12.0,0.,12.0,0.,12.0
1981-08-25 09:06:37.680 ,6,1,0.,12.0,0.,12.0,0.,12.0,0.,12.0
1981-08-25 09:06:49.680 ,6,0,0.,12.0,0.,12.0,0.,12.0,0.,12.0
1981-08-25 09:07:01.680 ,6,0,0.,12.0,0.,12.0,0.,12.0,0.,12.0
1981-08-25 09:07:13.680 ,5,1,0.,12.0,0.,12.0,0.,12.0,0.,12.0
1981-08-25 09:07:25.680 ,5,1,0.,12.0,0.,12.0,0.,12.0,0.,12.0
1981-08-25 09:07:37.680 ,5,0,1.,12.0,0.,12.0,0.,12.0,0.,12.0
1981-08-25 09:07:49.680 ,5,0,0.,12.0,0.,12.0,0.,12.0,0.,12.0
1981-08-25 09:08:01.680 ,4,1,0.,12.0,0.,12.0,0.,12.0,0.,12.0
1981-08-25 09:08:13.680 ,4,1,0.,12.0,0.,12.0,0.,12.0,0.,12.0
1981-08-25 09:08:25.680 ,4,0,0.,12.0,0.,12.0,0.,12.0,0.,12.0
1981-08-25 09:08:37.680 ,4,0,0.,12.0,0.,12.0,0.,12.0,0.,12.0
1981-08-25 09:08:49.680 ,3,1,0.,12.0,0.,12.0,0.,12.0,0.,12.0
1981-08-25 09:09:01.680 ,3,1,0.,12.0,0.,12.0,0.,12.0,0.,12.0
1981-08-25 09:09:13.680 ,3,0,0.,12.0,0.,12.0,0.,12.0,0.,12.0
1981-08-25 09:09:25.680 ,3,0,0.,12.0,0.,12.0,0.,12.0,0.,12.0
1981-08-25 09:09:37.680 ,2,1,0.,12.0,0.,12.0,0.,12.0,0.,12.0
1981-08-25 09:09:49.680 ,2,1,0.,12.0,0.,12.0,0.,12.0,0.,12.0
1981-08-25 09:10:01.680 ,2,0,0.,12.0,0.,12.0,0.,12.0,0.,12.0
1981-08-25 09:10:13.680 ,2,0,0.,12.0,0.,12.0,0.,12.0,0.,12.0
1981-08-25 09:10:25.680 ,1,1,0.,12.0,0.,12.0,0.,12.0,0.,12.0
1981-08-25 09:10:37.680 ,1,1,0.,12.0,0.,12.0,0.,12.0,0.,12.0
1981-08-25 09:10:49.680 ,1,0,0.,12.0,0.,12.0,0.,12.0,0.,12.0
1981-08-25 09:11:01.680 ,1,0,0.,12.0,0.,12.0,0.,12.0,0.,12.0
1981-08-25 09:11:13.680 ,0,1,0.,12.0,0.,12.0,0.,12.0,0.,12.0
1981-08-25 09:11:25.680 ,0,1,0.,12.0,0.,12.0,0.,12.0,0.,12.0
1981-08-25 09:11:37.680 ,0,0,0.,12.0,0.,12.0,0.,12.0,0.,12.0
1981-08-25 09:11:49.680 ,0,0,0.,12.0,0.,12.0,0.,12.0,0.,12.0
1981-08-25 09:12:01.680 ,0,1,0.,12.0,0.,12.0,0.,12.0,0.,12.0
1981-08-25 09:12:13.680 ,0,1,0.,12.0,0.,12.0,0.,12.0,0.,12.0
1981-08-25 09:12:25.680 ,0,0,1.,12.0,0.,12.0,0.,12.0,0.,12.0
1981-08-25 09:12:37.680 ,0,0,0.,12.0,0.,12.0,0.,12.0,0.,12.0
1981-08-25 09:12:49.680 ,1,1,0.,12.0,0.,12.0,0.,12.0,0.,12.0
1981-08-25 09:13:01.680 ,1,1,0.,12.0,0.,12.0,0.,12.0,0.,12.0
1981-08-25 09:13:13.680 ,1,0,0.,12.0,0.,12.0,0.,12.0,0.,12.0
1981-08-25 09:13:25.680 ,1,0,0.,12.0,0.,12.0,0.,12.0,0.,12.0
1981-08-25 09:13:37.680 ,2,1,0.,12.0,0.,12.0,0.,12.0,0.,12.0
1981-08-25 09:13:49.680 ,2,1,0.,12.0,0.,12.0,0.,12.0,0.,12.0
1981-08-25 09:14:01.680 ,2,0,0.,12.0,0.,12.0,0.,12.0,0.,12.0
1981-08-25 09:14:13.680 ,2,0,0.,12.0,0.,12.0,0.,12.0,0.,12.0
1981-08-25 09:14:25.680 ,3,1,0.,12.0,0.,12.0,0.,12.0,0.,12.0
1981-08-25 09:14:37.680 ,3,1,0.,12.0,0.,12.0,0.,12.0,0.,12.0
1981-08-25 09:14:49.680 ,3,0,0.,12.0,0.,12.0,0.,12.0,0.,12.0
1981-08-25 09:15:01.680 ,3,0,0.,12.0,0.,12.0,0.,12.0,0.,12.0
1981-08-25 09:15:13.680 ,4,1,0.,12.0,0.,12.0,0.,12.0,0.,12.0
1981-08-25 09:15:25.680 ,4,1,0.,12.0,0.,12.0,0.,12.0,0.,12.0
1981-08-25 09:15:37.680 ,4,0,0.,12.0,0.,12.0,0.,12.0,0.,12.0
1981-08-25 09:15:49.680 ,4,0,0.,12.0,0.,12.0,0.,12.0,0.,12.0
1981-08-25 09:16:01.680 ,5,1,0.,12.0,0.,12.0,0.,12.0,0.,12.0
1981-08-25 09:16:13.680 ,5,1,0.,12.0,0.,12.0,0.,12.0,0.,12.0
1981-08-25 09:16:25.680 ,5,0,1.,12.0,0.,12.0,0.,12.0,0.,12.0
1981-08-25 09:16:37.680 ,5,0,0.,12.0,0.,12.0,0.,12.0,0.,12.0
1981-08-25 09:16:49.680 ,6,1,0.,12.0,0.,12.0,0.,12.0,0.,12.0
1981-08-25 09:17:01.680 ,6,1,0.,12.0,0.,12.0,0.,12.0,0.,12.0
1981-08-25 09:17:13.680 ,6,0,0.,12.0,0.,12.0,0.,12.0,0.,12.0
1981-08-25 09:17:25.680 ,6,0,0.,12.0,0.,12.0,0.,12.0,0.,12.0
1981-08-25 09:17:37.680 ,7,1,0.,12.0,0.,12.0,0.,12.0,0.,12.0
1981-08-25 09:17:49.680 ,7,1,0.,12.0,0.,12.0,0.,12.0,0.,12.0
1981-08-25 09:18:01.680 ,7,0,0.,12.0,0.,12.0,0.,12.0,0.,12.0
1981-08-25 09:18:13.680 ,7,0,0.,12.0,0.,12.0,0.,12.0,0.,12.0
1981-08-25 09:18:25.680 ,7,1,0.,12.0,0.,12.0,0.,12.0,0.,12.0
1981-08-25 09:18:37.680 ,7,1,0.,12.0,0.,12.0,0.,12.0,0.,12.0
1981-08-25 09:18:49.680 ,7,0,0.,12.0,0.,12.0,0.,12.0,0.,12.0
1981-08-25 09:19:01.680 ,7,0,0.,12.0,0.,12.0,0.,12.0,0.,12.0
1981-08-25 09:19:13.680 ,6,1,0.,12.0,0.,12.0,0.,12.0,0.,12.0
1981-08-25 09:19:25.680 ,6,1,0.,12.0,0.,12.0,0.,12.0,0.,12.0
1981-08-25 09:19:37.680 ,6,0,0.,12.0,0.,12.0,0.,12.0,0.,12.0
1981-08-25 09:19:49.680 ,6,0,0.,12.0,0.,12.0,0.,12.0,0.,12.0
1981-08-25 09:20:01.680 ,5,1,0.,12.0,0.,12.0,0.,12.0,0.,12.0
1981-08-25 09:20:13.680 ,5,1,0.,12.0,0.,12.0,0.,12.0,0.,12.0
1981-08-25 09:20:25.680 ,5,0,0.,12.0,0.,12.0,0.,12.0,0.,12.0
1981-08-25 09:20:37.680 ,5,0,0.,12.0,0.,12.0,0.,12.0,0.,12.0
1981-08-25 09:20:49.680 ,4,1,0.,12.0,0.,12.0,0.,12.0,0.,12.0
1981-08-25 09:21:01.680 ,4,1,0.,12.0,0.,12.0,0.,12.0,0.,12.0
1981-08-25 09:21:13.680 ,4,0,0.,12.0,0.,12.0,0.,12.0,0.,12.0
1981-08-25 09:21:25.680 ,4,0,0.,12.0,0.,12.0,0.,12.0,0.,12.0
1981-08-25 09:21:37.680 ,3,1,0.,12.0,0.,12.0,0.,12.0,0.,12.0
1981-08-25 09:21:49.680 ,3,1,0.,12.0,0.,12.0,0.,12.0,0.,12.0
1981-08-25 09:22:01.680 ,3,0,0.,12.0,0.,12.0,0.,12.0,0.,12.0
1981-08-25 09:22:13.680 ,3,0,0.,12.0,0.,12.0,0.,12.0,0.,12.0
1981-08-25 09:22:25.680 ,2,1,0.,12.0,0.,12.0,0.,12.0,0.,12.0
1981-08-25 09:22:37.680 ,2,1,0.,12.0,0.,12.0,0.,12.0,0.,12.0
1981-08-25 09:22:49.680 ,2,0,0.,12.0,0.,12.0,0.,12.0,0.,12.0
1981-08-25 09:23:01.680 ,2,0,0.,12.0,0.,12.0,0.,12.0,0.,12.0
1981-08-25 09:23:13.680 ,1,1,,0,,0,,0,,0
1981-08-25 09:23:25.680 ,1,1,0.,12.0,0.,12.0,0.,12.0,0.,12.0
1981-08-25 09:23:37.680 ,1,0,0.,12.0,0.,12.0,0.,12.0,0.,12.0
1981-08-25 09:23:49.680 ,1,0,0.,12.0,0.,12.0,0.,12.0,0.,12.0
1981-08-25 09:24:01.680 ,0,1,0.,12.0,0.,12.0,0.,12.0,0.,12.0
1981-08-25 09:24:13.680 ,0,1,0.,12.0,0.,12.0,0.,12.0,0.,12.0
1981-08-25 09:24:25.680 ,0,0,0.,12.0,0.,12.0,0.,12.0,0.,12.0
1981-08-25 09:24:37.680 ,0,0,0.,12.0,0.,12.0,0.,12.0,0.,12.0
1981-08-25 09:24:49.680 ,0,1,1.,12.0,0.,12.0,0.,12.0,0.,12.0
1981-08-25 09:25:01.680 ,0,1,1.,12.0,0.,12.0,0.,12.0,0.,12.0
1981-08-25 09:25:13.680 ,0,0,0.,12.0,0.,12.0,0.,12.0,0.,12.0
1981-08-25 09:25:25.680 ,0,0,0.,12.0,0.,12.0,0.,12.0,0.,12.0
1981-08-25 09:25:37.680 ,1,1,0.,12.0,0.,12.0,0.,12.0,0.,12.0
1981-08-25 09:25:49.680 ,1,1,0.,12.0,0.,12.0,0.,12.0,0.,12.0
1981-08-25 09:26:01.680 ,1,0,0.,12.0,0.,12.0,0.,12.0,0.,12.0
1981-08-25 09:26:13.680 ,1,0,0.,12.0,0.,12.0,0.,12.0,0.,12.0
1981-08-25 09:26:25.680 ,2,1,0.,12.0,0.,12.0,0.,12.0,0.,12.0
1981-08-25 09:26:37.680 ,2,1,1.,12.0,0.,12.0,0.,12.0,0.,12.0
1981-08-25 09:26:49.680 ,2,0,0.,12.0,0.,12.0,0.,12.0,0.,12.0
1981-08-25 09:27:01.680 ,2,0,0.,12.0,0.,12.0,0.,12.0,0.,12.0
1981-08-25 09:27:13.680 ,3,1,1.,12.0,0.,12.0,0.,12.0,0.,12.0
1981-08-25 09:27:25.680 ,3,1,0.,12.0,0.,12.0,0.,12.0,0.,12.0
1981-08-25 09:27:37.680 ,3,0,0.,12.0,0.,12.0,0.,12.0,0.,12.0
1981-08-25 09:27:49.680 ,3,0,0.,12.0,0.,12.0,0.,12.0,0.,12.0
1981-08-25 09:28:01.680 ,4,1,1.,12.0,0.,12.0,0.,12.0,0.,12.0
1981-08-25 09:28:13.680 ,4,1,1.,12.0,0.,12.0,0.,12.0,0.,12.0
1981-08-25 09:28:25.680 ,4,0,0.,12.0,0.,12.0,0.,12.0,0.,12.0
1981-08-25 09:28:37.680 ,4,0,0.,12.0,0.,12.0,0.,12.0,0.,12.0
1981-08-25 09:28:49.680 ,5,1,0.,12.0,0.,12.0,0.,12.0,0.,12.0
1981-08-25 09:29:01.680 ,5,1,0.,12.0,0.,12.0,0.,12.0,0.,12.0
1981-08-25 09:29:13.680 ,5,0,0.,12.0,0.,12.0,0.,12.0,0.,12.0
1981-08-25 09:29:25.680 ,5,0,0.,12.0,0.,12.0,0.,12.0,0.,12.0
1981-08-25 09:29:37.680 ,6,1,1.,12.0,0.,12.0,0.,12.0,0.,12.0
1981-08-25 09:29:49.680 ,6,1,0.,12.0,0.,12.0,0.,12.0,0.,12.0
1981-08-25 09:30:01.680 ,6,0,0.,12.0,0.,12.0,0.,12.0,0.,12.0
1981-08-25 09:30:13.680 ,6,0,0.,12.0,0.,12.0,0.,12.0,0.,12.0
1981-08-25 09:30:25.680 ,7,1,0.,12.0,0.,12.0,0.,12.0,0.,12.0
1981-08-25 09:30:37.680 ,7,1,0.,12.0,0.,12.0,0.,12.0,0.,12.0
1981-08-25 09:30:49.680 ,7,0,0.,12.0,0.,12.0,0.,12.0,0.,12.0
1981-08-25 09:31:01.680 ,7,0,0.,12.0,0.,12.0,0.,12.0,0.,12.0
1981-08-25 09:31:13.680 ,7,1,0.,12.0,0.,12.0,0.,12.0,0.,12.0
1981-08-25 09:31:25.680 ,7,1,0.,12.0,0.,12.0,0.,12.0,0.,12.0
1981-08-25 09:31:37.680 ,7,0,0.,12.0,0.,12.0,0.,12.0,0.,12.0
1981-08-25 09:31:49.680 ,7,0,0.,12.0,0.,12.0,0.,12.0,0.,12.0
1981-08-25 09:32:01.680 ,6,1,0.,12.0,0.,12.0,0.,12.0,0.,12.0
1981-08-25 09:32:13.680 ,6,1,0.,12.0,0.,12.0,0.,12.0,0.,12.0
1981-08-25 09:32:25.680 ,6,0,0.,12.0,0.,12.0,0.,12.0,0.,12.0
1981-08-25 09:32:37.680 ,6,0,0.,12.0,0.,12.0,0.,12.0,0.,12.0
1981-08-25 09:32:49.680 ,5,1,1.,12.0,0.,12.0,0.,12.0,0.,12.0
1981-08-25 09:33:01.680 ,5,1,0.,12.0,0.,12.0,0.,12.0,0.,12.0
1981-08-25 09:33:13.680 ,5,0,1.,12.0,0.,12.0,0.,12.0,0.,12.0
1981-08-25 09:33:25.680 ,5,0,0.,12.0,0.,12.0,0.,12.0,0.,12.0
1981-08-25 09:33:37.680 ,4,1,0.,12.0,0.,12.0,0.,12.0,0.,12.0
1981-08-25 09:33:49.680 ,4,1,0.,12.0,0.,12.0,0.,12.0,0.,12.0
1981-08-25 09:34:01.680 ,4,0,1.,12.0,0.,12.0,0.,12.0,0.,12.0
1981-08-25 09:34:13.680 ,4,0,0.,12.0,0.,12.0,0.,12.0,0.,12.0
1981-08-25 09:34:25.680 ,0,0,,0,,0,,0,,0
1981-08-25 09:34:37.680 ,0,0,,0,,0,,0,,0
1981-08-25 09:34:49.680 ,0,0,,0,,0,,0,,0
1981-08-25 09:35:01.680 ,0,0,,0,,0,,0,,0
1981-08-25 09:34:49.680 ,3,0,0.,12.0,0.,12.0,0.,12.0,0.,12.0
1981-08-25 09:35:01.680 ,3,0,0.,12.0,0.,12.0,0.,12.0,0.,12.0
1981-08-25 09:35:13.680 ,2,1,0.,12.0,0.,12.0,0.,12.0,0.,12.0
1981-08-25 09:35:25.680 ,2,1,0.,12.0,0.,12.0,0.,12.0,0.,12.0
1981-08-25 09:35:37.680 ,2,0,0.,12.0,0.,12.0,0.,12.0,0.,12.0
1981-08-25 09:35:49.680 ,2,0,0.,12.0,0.,12.0,0.,12.0,0.,12.0
1981-08-25 09:36:01.680 ,1,1,0.,12.0,0.,12.0,0.,12.0,0.,12.0
1981-08-25 09:36:13.680 ,1,1,0.,12.0,0.,12.0,0.,12.0,0.,12.0
1981-08-25 09:36:25.680 ,1,0,0.,12.0,0.,12.0,0.,12.0,0.,12.0
1981-08-25 09:36:37.680 ,1,0,0.,12.0,0.,12.0,0.,12.0,0.,12.0
1981-08-25 09:36:49.680 ,0,1,0.,12.0,0.,12.0,0.,12.0,0.,12.0
1981-08-25 09:37:01.680 ,0,1,0.,12.0,0.,12.0,0.,12.0,0.,12.0
1981-08-25 09:37:13.680 ,0,0,0.,12.0,0.,12.0,0.,12.0,0.,12.0
1981-08-25 09:37:25.680 ,0,0,0.,12.0,0.,12.0,0.,12.0,0.,12.0
1981-08-25 09:38:25.680 ,0,0,0.,12.0,0.,12.0,0.,12.0,0.,12.0
1981-08-25 09:38:37.680 ,0,0,0.,12.0,0.,12.0,0.,12.0,0.,12.0
1981-08-25 09:38:49.680 ,0,0,0.,12.0,0.,12.0,0.,12.0,0.,12.0
1981-08-25 09:39:01.680 ,0,0,0.,12.0,0.,12.0,0.,12.0,0.,12.0
1981-08-25 09:39:13.680 ,2,1,0.,12.0,0.,12.0,0.,12.0,0.,12.0
1981-08-25 09:39:25.680 ,2,1,0.,12.0,0.,12.0,0.,12.0,0.,12.0
1981-08-25 09:39:37.680 ,2,0,0.,12.0,0.,12.0,0.,12.0,0.,12.0
1981-08-25 09:39:49.680 ,2,0,0.,12.0,0.,12.0,0.,12.0,0.,12.0
1981-08-25 09:40:01.680 ,3,1,0.,12.0,0.,12.0,0.,12.0,0.,12.0
1981-08-25 09:40:13.680 ,3,1,0.,12.0,0.,12.0,0.,12.0,0.,12.0
1981-08-25 09:40:25.680 ,3,0,0.,12.0,0.,12.0,0.,12.0,0.,12.0
1981-08-25 09:40:37.680 ,3,0,0.,12.0,0.,12.0,0.,12.0,0.,12.0
1981-08-25 09:40:49.680 ,4,1,0.,12.0,0.,12.0,0.,12.0,0.,12.0
1981-08-25 09:41:01.680 ,4,1,0.,12.0,0.,12.0,0.,12.0,0.,12.0
1981-08-25 09:41:13.680 ,4,0,0.,12.0,0.,12.0,0.,12.0,0.,12.0
1981-08-25 09:41:25.680 ,4,0,0.,12.0,0.,12.0,0.,12.0,0.,12.0
1981-08-25 09:41:37.680 ,5,1,0.,12.0,0.,12.0,0.,12.0,0.,12.0
1981-08-25 09:41:49.680 ,5,1,0.,12.0,0.,12.0,0.,12.0,0.,12.0
1981-08-25 09:42:01.680 ,5,0,0.,12.0,0.,12.0,0.,12.0,0.,12.0
1981-08-25 09:42:13.680 ,5,0,0.,12.0,0.,12.0,0.,12.0,0.,12.0
1981-08-25 09:42:25.680 ,6,1,0.,12.0,0.,12.0,0.,12.0,0.,12.0
1981-08-25 09:42:37.680 ,6,1,0.,12.0,0.,12.0,0.,12.0,0.,12.0
1981-08-25 09:42:49.680 ,6,0,0.,12.0,0.,12.0,0.,12.0,0.,12.0
1981-08-25 09:43:01.680 ,6,0,0.,12.0,0.,12.0,0.,12.0,0.,12.0
1981-08-25 09:43:13.680 ,7,1,0.,12.0,0.,12.0,0.,12.0,0.,12.0
1981-08-25 09:43:25.680 ,7,1,0.,12.0,0.,12.0,0.,12.0,0.,12.0
1981-08-25 09:43:37.680 ,7,0,0.,12.0,0.,12.0,0.,12.0,0.,12.0
1981-08-25 09:43:49.680 ,7,0,0.,12.0,0.,12.0,0.,12.0,0.,12.0
1981-08-25 09:44:01.680 ,7,1,0.,12.0,0.,12.0,0.,12.0,0.,12.0
1981-08-25 09:44:13.680 ,7,1,0.,12.0,0.,12.0,0.,12.0,0.,12.0
1981-08-25 09:44:25.680 ,7,0,0.,12.0,0.,12.0,0.,12.0,0.,12.0
1981-08-25 09:44:37.680 ,7,0,0.,12.0,0.,12.0,0.,12.0,0.,12.0
1981-08-25 09:44:49.680 ,6,1,0.,12.0,0.,12.0,0.,12.0,0.,12.0
1981-08-25 09:45:01.680 ,6,1,0.,12.0,0.,12.0,0.,12.0,0.,12.0
1981-08-25 09:45:13.680 ,6,0,0.,12.0,0.,12.0,0.,12.0,0.,12.0
1981-08-25 09:45:25.680 ,6,0,0.,12.0,0.,12.0,0.,12.0,0.,12.0
1981-08-25 09:45:37.680 ,5,1,0.,12.0,0.,12.0,0.,12.0,0.,12.0
1981-08-25 09:45:49.680 ,5,1,0.,12.0,0.,12.0,0.,12.0,0.,12.0
1981-08-25 09:46:01.680 ,5,0,1.,12.0,0.,12.0,0.,12.0,0.,12.0
1981-08-25 09:46:13.680 ,5,0,1.,12.0,0.,12.0,0.,12.0,0.,12.0
1981-08-25 09:46:25.680 ,4,1,0.,12.0,0.,12.0,0.,12.0,0.,12.0
1981-08-25 09:46:37.680 ,4,1,0.,12.0,0.,12.0,0.,12.0,0.,12.0
1981-08-25 09:46:49.680 ,4,0,0.,12.0,0.,12.0,0.,12.0,0.,12.0
1981-08-25 09:47:01.680 ,4,0,1.,12.0,0.,12.0,0.,12.0,0.,12.0
1981-08-25 09:47:13.680 ,3,1,0.,12.0,0.,12.0,0.,12.0,0.,12.0
1981-08-25 09:47:25.680 ,3,1,0.,12.0,0.,12.0,0.,12.0,0.,12.0
1981-08-25 09:47:37.680 ,3,0,0.,12.0,0.,12.0,0.,12.0,0.,12.0
1981-08-25 09:47:49.680 ,3,0,0.,12.0,0.,12.0,0.,12.0,0.,12.0
1981-08-25 09:48:01.680 ,2,1,0.,12.0,0.,12.0,0.,12.0,0.,12.0
1981-08-25 09:48:13.680 ,2,1,0.,12.0,0.,12.0,0.,12.0,0.,12.0
1981-08-25 09:48:25.680 ,2,0,0.,12.0,0.,12.0,0.,12.0,0.,12.0
1981-08-25 09:48:37.680 ,2,0,0.,12.0,0.,12.0,0.,12.0,0.,12.0
1981-08-25 09:48:49.680 ,1,1,0.,12.0,0.,12.0,0.,12.0,0.,12.0
1981-08-25 09:49:01.680 ,1,1,0.,12.0,0.,12.0,0.,12.0,0.,12.0
1981-08-25 09:49:13.680 ,1,0,0.,12.0,0.,12.0,0.,12.0,0.,12.0
1981-08-25 09:49:25.680 ,1,0,0.,12.0,0.,12.0,0.,12.0,0.,12.0
1981-08-25 09:49:37.680 ,0,1,0.,12.0,0.,12.0,0.,12.0,0.,12.0
1981-08-25 09:49:49.680 ,0,1,0.,12.0,0.,12.0,0.,12.0,0.,12.0
1981-08-25 09:50:01.680 ,0,0,0.,12.0,0.,12.0,0.,12.0,0.,12.0
1981-08-25 09:50:13.680 ,0,0,0.,12.0,0.,12.0,0.,12.0,0.,12.0
1981-08-25 09:50:25.680 ,0,1,0.,12.0,0.,12.0,0.,12.0,0.,12.0
1981-08-25 09:50:37.680 ,0,1,0.,12.0,0.,12.0,0.,12.0,0.,12.0
1981-08-25 09:50:49.680 ,0,0,0.,12.0,0.,12.0,0.,12.0,0.,12.0
1981-08-25 09:51:01.680 ,0,0,0.,12.0,0.,12.0,0.,12.0,0.,12.0
1981-08-25 09:51:13.680 ,1,1,0.,12.0,0.,12.0,0.,12.0,0.,12.0
1981-08-25 09:51:25.680 ,1,1,0.,12.0,0.,12.0,0.,12.0,0.,12.0
1981-08-25 09:51:37.680 ,1,0,0.,12.0,0.,12.0,0.,12.0,0.,12.0
1981-08-25 09:51:49.680 ,1,0,0.,12.0,0.,12.0,0.,12.0,0.,12.0
1981-08-25 09:52:01.680 ,2,1,0.,12.0,0.,12.0,0.,12.0,0.,12.0
1981-08-25 09:52:13.680 ,2,1,0.,12.0,0.,12.0,0.,12.0,0.,12.0
1981-08-25 09:52:25.680 ,2,0,0.,12.0,0.,12.0,0.,12.0,0.,12.0
1981-08-25 09:52:37.680 ,2,0,0.,12.0,0.,12.0,0.,12.0,0.,12.0
1981-08-25 09:52:49.680 ,3,1,0.,12.0,0.,12.0,0.,12.0,0.,12.0
1981-08-25 09:53:01.680 ,3,1,0.,12.0,0.,12.0,0.,12.0,0.,12.0
1981-08-25 09:53:13.680 ,3,0,0.,12.0,0.,12.0,0.,12.0,0.,12.0
1981-08-25 09:53:25.680 ,3,0,0.,12.0,0.,12.0,0.,12.0,0.,12.0
1981-08-25 09:53:37.680 ,4,1,0.,12.0,0.,12.0,0.,12.0,0.,12.0
1981-08-25 09:53:49.680 ,4,1,0.,12.0,0.,12.0,0.,12.0,0.,12.0
1981-08-25 09:54:01.680 ,4,0,0.,12.0,0.,12.0,0.,12.0,0.,12.0
1981-08-25 09:54:13.680 ,4,0,0.,12.0,0.,12.0,0.,12.0,0.,12.0
1981-08-25 09:54:25.680 ,5,1,0.,12.0,0.,12.0,0.,12.0,0.,12.0
1981-08-25 09:54:37.680 ,5,1,0.,12.0,0.,12.0,0.,12.0,0.,12.0
1981-08-25 09:54:49.680 ,5,0,0.,12.0,0.,12.0,0.,12.0,0.,12.0
1981-08-25 09:55:01.680 ,5,0,1.,12.0,0.,12.0,0.,12.0,0.,12.0
1981-08-25 09:55:13.680 ,6,1,0.,12.0,0.,12.0,0.,12.0,0.,12.0
1981-08-25 09:55:25.680 ,6,1,0.,12.0,0.,12.0,0.,12.0,0.,12.0
1981-08-25 09:55:37.680 ,6,0,0.,12.0,0.,12.0,0.,12.0,0.,12.0
1981-08-25 09:55:49.680 ,6,0,0.,12.0,0.,12.0,0.,12.0,0.,12.0
1981-08-25 09:56:01.680 ,7,1,0.,12.0,0.,12.0,0.,12.0,0.,12.0
1981-08-25 09:56:13.680 ,7,1,0.,12.0,0.,12.0,0.,12.0,0.,12.0
1981-08-25 09:56:25.680 ,7,0,0.,12.0,0.,12.0,0.,12.0,0.,12.0
1981-08-25 09:56:37.680 ,7,0,0.,12.0,0.,12.0,0.,12.0,0.,12.0
1981-08-25 09:56:49.680 ,7,1,0.,12.0,0.,12.0,0.,12.0,0.,12.0
1981-08-25 09:57:01.680 ,7,1,0.,12.0,0.,12.0,0.,12.0,0.,12.0
1981-08-25 09:57:13.680 ,7,0,0.,12.0,0.,12.0,0.,12.0,0.,12.0
1981-08-25 09:57:25.680 ,7,0,0.,12.0,0.,12.0,0.,12.0,0.,12.0
1981-08-25 09:57:37.680 ,6,1,0.,12.0,0.,12.0,0.,12.0,0.,12.0
1981-08-25 09:57:49.680 ,6,1,0.,12.0,0.,12.0,0.,12.0,0.,12.0
1981-08-25 09:58:01.680 ,6,0,0.,12.0,0.,12.0,0.,12.0,0.,12.0
1981-08-25 09:58:13.680 ,6,0,0.,12.0,0.,12.0,0.,12.0,0.,12.0
1981-08-25 09:58:25.680 ,5,1,0.,12.0,0.,12.0,0.,12.0,0.,12.0
1981-08-25 09:58:37.680 ,5,1,0.,12.0,0.,12.0,0.,12.0,0.,12.0
1981-08-25 09:58:49.680 ,5,0,0.,12.0,0.,12.0,0.,12.0,0.,12.0
1981-08-25 09:59:01.680 ,5,0,0.,12.0,0.,12.0,0.,12.0,0.,12.0
1981-08-25 09:59:13.680 ,4,1,0.,12.0,0.,12.0,0.,12.0,0.,12.0
1981-08-25 09:59:25.680 ,4,1,0.,12.0,0.,12.0,0.,12.0,0.,12.0
1981-08-25 09:59:37.680 ,4,0,0.,12.0,0.,12.0,0.,12.0,0.,12.0
1981-08-25 09:59:49.680 ,4,0,0.,12.0,0.,12.0,0.,12.0,0.,12.0
1981-08-25 10:00:01.680 ,3,1,0.,12.0,0.,12.0,0.,12.0,0.,12.0
1981-08-25 10:00:13.680 ,3,1,0.,12.0,0.,12.0,0.,12.0,0.,12.0
1981-08-25 10:00:25.680 ,3,0,,0,,0,,0,,0
1981-08-25 10:00:37.680 ,3,0,0.,12.0,0.,12.0,0.,12.0,0.,12.0
1981-08-25 10:00:49.670 ,2,1,0.,12.0,0.,12.0,0.,12.0,0.,12.0
1981-08-25 10:01:01.680 ,2,1,0.,12.0,0.,12.0,0.,12.0,0.,12.0
1981-08-25 10:01:13.680 ,2,0,0.,12.0,0.,12.0,0.,12.0,0.,12.0
1981-08-25 10:01:25.680 ,2,0,0.,12.0,0.,12.0,0.,12.0,0.,12.0
1981-08-25 10:01:37.680 ,1,1,0.,12.0,0.,12.0,0.,12.0,0.,12.0
1981-08-25 10:01:49.680 ,1,1,0.,12.0,0.,12.0,0.,12.0,0.,12.0
1981-08-25 10:02:01.680 ,1,0,0.,12.0,0.,12.0,0.,12.0,0.,12.0
1981-08-25 10:02:13.680 ,1,0,0.,12.0,0.,12.0,0.,12.0,0.,12.0
1981-08-25 10:02:25.680 ,0,1,1.,12.0,0.,12.0,0.,12.0,0.,12.0
1981-08-25 10:02:37.680 ,0,1,0.,12.0,0.,12.0,0.,12.0,0.,12.0
1981-08-25 10:02:49.680 ,0,0,0.,12.0,0.,12.0,0.,12.0,0.,12.0
1981-08-25 10:03:01.680 ,0,0,0.,12.0,0.,12.0,0.,12.0,0.,12.0
1981-08-25 10:03:13.680 ,0,1,0.,12.0,0.,12.0,0.,12.0,0.,12.0
1981-08-25 10:03:25.680 ,0,1,0.,12.0,0.,12.0,0.,12.0,0.,12.0
1981-08-25 10:03:37.680 ,0,0,0.,12.0,0.,12.0,0.,12.0,0.,12.0
1981-08-25 10:03:49.680 ,0,0,0.,12.0,0.,12.0,0.,12.0,0.,12.0
1981-08-25 10:04:01.680 ,1,1,1.,12.0,0.,12.0,0.,12.0,0.,12.0
1981-08-25 10:04:13.680 ,1,1,1.,12.0,0.,12.0,0.,12.0,0.,12.0
1981-08-25 10:04:25.680 ,1,0,0.,12.0,0.,12.0,0.,12.0,0.,12.0
1981-08-25 10:04:37.680 ,1,0,0.,12.0,0.,12.0,0.,12.0,0.,12.0
1981-08-25 10:04:49.680 ,2,1,0.,12.0,0.,12.0,0.,12.0,0.,12.0
1981-08-25 10:05:01.680 ,2,1,0.,12.0,0.,12.0,0.,12.0,0.,12.0
1981-08-25 10:05:13.680 ,0,0,0.,12.0,0.,12.0,0.,12.0,0.,12.0
1981-08-25 10:05:25.680 ,0,0,0.,12.0,0.,12.0,0.,12.0,0.,12.0
1981-08-25 10:05:42.480 ,0,0,,0,,0,,0,,0
1981-08-25 10:05:54.480 ,0,0,0.,12.0,0.,12.0,0.,12.0,0.,12.0
1981-08-25 10:06:01.680 ,0,0,0.,12.0,0.,12.0,0.,12.0,0.,12.0
1981-08-25 10:06:13.680 ,0,0,0.,12.0,0.,12.0,0.,12.0,0.,12.0
1981-08-25 10:06:25.670 ,4,1,0.,12.0,0.,12.0,0.,12.0,0.,12.0
1981-08-25 10:06:37.670 ,4,1,1.,12.0,0.,12.0,0.,12.0,0.,12.0
1981-08-25 10:06:49.670 ,4,0,0.,12.0,0.,12.0,0.,12.0,0.,12.0
1981-08-25 10:07:01.670 ,4,0,0.,12.0,0.,12.0,0.,12.0,0.,12.0
1981-08-25 10:07:13.670 ,5,1,0.,12.0,0.,12.0,0.,12.0,0.,12.0
1981-08-25 10:07:25.670 ,5,1,0.,12.0,0.,12.0,0.,12.0,0.,12.0
1981-08-25 10:07:37.670 ,5,0,0.,12.0,0.,12.0,0.,12.0,0.,12.0
1981-08-25 10:07:49.670 ,5,0,0.,12.0,0.,12.0,0.,12.0,0.,12.0
1981-08-25 10:08:01.670 ,6,1,1.,12.0,0.,12.0,0.,12.0,0.,12.0
1981-08-25 10:08:13.670 ,6,1,0.,12.0,0.,12.0,0.,12.0,0.,12.0
1981-08-25 10:08:25.670 ,6,0,0.,12.0,0.,12.0,0.,12.0,0.,12.0
1981-08-25 10:08:37.670 ,6,0,0.,12.0,0.,12.0,0.,12.0,0.,12.0
1981-08-25 10:08:49.670 ,7,1,0.,12.0,0.,12.0,0.,12.0,0.,12.0
1981-08-25 10:09:01.670 ,7,1,0.,12.0,0.,12.0,0.,12.0,0.,12.0
1981-08-25 10:09:13.670 ,7,0,0.,12.0,0.,12.0,0.,12.0,0.,12.0
1981-08-25 10:09:25.670 ,7,0,0.,12.0,0.,12.0,0.,12.0,0.,12.0
1981-08-25 10:09:37.670 ,7,1,0.,12.0,0.,12.0,0.,12.0,0.,12.0
1981-08-25 10:09:49.670 ,7,1,0.,12.0,0.,12.0,0.,12.0,0.,12.0
1981-08-25 10:10:01.670 ,7,0,0.,12.0,0.,12.0,0.,12.0,0.,12.0
1981-08-25 10:10:13.670 ,7,0,0.,12.0,0.,12.0,0.,12.0,0.,12.0
1981-08-25 10:10:25.670 ,6,1,0.,12.0,0.,12.0,0.,12.0,0.,12.0
1981-08-25 10:10:37.670 ,6,1,0.,12.0,0.,12.0,0.,12.0,0.,12.0
1981-08-25 10:10:49.670 ,6,0,0.,12.0,0.,12.0,0.,12.0,0.,12.0
1981-08-25 10:11:01.670 ,6,0,0.,12.0,0.,12.0,0.,12.0,0.,12.0
1981-08-25 10:11:13.670 ,5,1,0.,12.0,0.,12.0,0.,12.0,0.,12.0
1981-08-25 10:11:25.670 ,5,1,0.,12.0,0.,12.0,0.,12.0,0.,12.0
1981-08-25 10:11:37.670 ,5,0,0.,12.0,0.,12.0,0.,12.0,0.,12.0
1981-08-25 10:11:49.670 ,5,0,0.,12.0,0.,12.0,0.,12.0,0.,12.0
1981-08-25 10:12:01.670 ,4,1,0.,12.0,0.,12.0,0.,12.0,0.,12.0
1981-08-25 10:12:13.670 ,4,1,1.,12.0,0.,12.0,0.,12.0,0.,12.0
1981-08-25 10:12:25.670 ,4,0,0.,12.0,0.,12.0,0.,12.0,0.,12.0
1981-08-25 10:12:37.670 ,4,0,0.,12.0,0.,12.0,0.,12.0,0.,12.0
1981-08-25 10:12:49.670 ,3,1,1.,12.0,0.,12.0,0.,12.0,0.,12.0
1981-08-25 10:13:01.670 ,3,1,0.,12.0,0.,12.0,0.,12.0,0.,12.0
1981-08-25 10:13:13.670 ,3,0,1.,12.0,0.,12.0,0.,12.0,0.,12.0
1981-08-25 10:13:25.670 ,3,0,0.,12.0,0.,12.0,0.,12.0,0.,12.0
1981-08-25 10:13:37.670 ,2,1,0.,12.0,0.,12.0,0.,12.0,0.,12.0
1981-08-25 10:13:49.670 ,2,1,0.,12.0,0.,12.0,0.,12.0,0.,12.0
1981-08-25 10:14:01.670 ,2,0,0.,12.0,0.,12.0,0.,12.0,0.,12.0
1981-08-25 10:14:13.670 ,2,0,0.,12.0,0.,12.0,0.,12.0,0.,12.0
1981-08-25 10:14:25.670 ,1,1,0.,12.0,0.,12.0,0.,12.0,0.,12.0
1981-08-25 10:14:37.670 ,1,1,0.,12.0,0.,12.0,0.,12.0,0.,12.0
1981-08-25 10:14:49.670 ,1,0,0.,12.0,0.,12.0,0.,12.0,0.,12.0
1981-08-25 10:15:01.670 ,1,0,0.,12.0,0.,12.0,0.,12.0,0.,12.0
1981-08-25 10:15:13.670 ,0,1,0.,12.0,0.,12.0,0.,12.0,0.,12.0
1981-08-25 10:15:25.670 ,0,1,0.,12.0,0.,12.0,0.,12.0,0.,12.0
1981-08-25 10:15:37.670 ,0,0,0.,12.0,0.,12.0,0.,12.0,0.,12.0
1981-08-25 10:15:49.670 ,0,0,0.,12.0,0.,12.0,0.,12.0,0.,12.0
1981-08-25 10:16:01.670 ,0,1,0.,12.0,0.,12.0,0.,12.0,0.,12.0
1981-08-25 10:16:13.670 ,0,1,0.,12.0,0.,12.0,0.,12.0,0.,12.0
1981-08-25 10:16:25.670 ,0,0,0.,12.0,0.,12.0,0.,12.0,0.,12.0
1981-08-25 10:16:37.670 ,0,0,0.,12.0,0.,12.0,0.,12.0,0.,12.0
1981-08-25 10:16:49.670 ,1,1,1.,12.0,0.,12.0,0.,12.0,0.,12.0
1981-08-25 10:17:01.670 ,1,1,0.,12.0,0.,12.0,0.,12.0,0.,12.0
1981-08-25 10:17:13.670 ,1,0,0.,12.0,0.,12.0,0.,12.0,0.,12.0
1981-08-25 10:17:25.670 ,1,0,0.,12.0,0.,12.0,0.,12.0,0.,12.0
1981-08-25 10:17:37.670 ,2,1,0.,12.0,0.,12.0,0.,12.0,0.,12.0
1981-08-25 10:17:49.670 ,2,1,0.,12.0,0.,12.0,0.,12.0,0.,12.0
1981-08-25 10:18:01.670 ,2,0,0.,12.0,0.,12.0,0.,12.0,0.,12.0
1981-08-25 10:18:13.670 ,2,0,0.,12.0,0.,12.0,0.,12.0,0.,12.0